TimeEST,TemperatureF,Dew PointF,Humidity,Sea Level PressureIn,VisibilityMPH,Wind Direction,Wind SpeedMPH,Gust SpeedMPH,PrecipitationIn,Events,Conditions,WindDirDegrees,DateUTC
12:56 AM,46.9,46.0,97,30.30,7.0,Calm,Calm,-,N/A,,Clear,0,2012-12-03 05:56:00
1:56 AM,45.0,45.0,100,30.30,8.0,Calm,Calm,-,N/A,,Clear,0,2012-12-03 06:56:00
2:56 AM,45.0,43.0,93,30.30,9.0,Calm,Calm,-,N/A,,Clear,0,2012-12-03 07:56:00
3:35 AM,44.6,42.8,93,30.31,9.0,Calm,Calm,-,N/A,,Scattered Clouds,0,2012-12-03 08:35:00
3:44 AM,44.6,42.8,93,30.31,1.0,Calm,Calm,-,N/A,,Mist,0,2012-12-03 08:44:00
3:50 AM,44.6,42.8,93,30.31,0.2,Calm,Calm,-,N/A,Fog,Fog,0,2012-12-03 08:50:00
3:51 AM,44.1,43.0,96,30.30,0.2,Calm,Calm,-,N/A,Fog,Fog,0,2012-12-03 08:51:00
4:00 AM,44.6,44.6,100,30.31,0.5,Calm,Calm,-,N/A,Fog,Fog,0,2012-12-03 09:00:00
4:10 AM,42.8,42.8,100,30.31,2.0,Calm,Calm,-,N/A,,Overcast,0,2012-12-03 09:10:00
4:17 AM,42.8,42.8,100,30.31,7.0,Calm,Calm,-,N/A,,Overcast,0,2012-12-03 09:17:00
4:31 AM,44.6,42.8,93,30.30,1.2,Calm,Calm,-,N/A,,Overcast,0,2012-12-03 09:31:00
4:36 AM,44.6,42.8,93,30.30,0.2,Calm,Calm,-,N/A,Fog,Fog,0,2012-12-03 09:36:00
4:45 AM,46.4,44.6,93,30.30,0.2,Calm,Calm,-,N/A,Fog,Fog,0,2012-12-03 09:45:00
4:56 AM,44.1,44.1,100,30.30,0.2,Calm,Calm,-,N/A,Fog,Fog,0,2012-12-03 09:56:00
5:03 AM,44.6,44.6,100,30.30,1.0,Calm,Calm,-,N/A,,Mist,0,2012-12-03 10:03:00
5:07 AM,44.6,44.6,100,30.30,3.0,Calm,Calm,-,N/A,,Mostly Cloudy,0,2012-12-03 10:07:00
5:19 AM,42.8,42.8,100,30.30,1.2,South,3.5,-,N/A,,Mostly Cloudy,190,2012-12-03 10:19:00
5:23 AM,44.6,42.8,93,30.30,0.2,SW,3.5,-,N/A,Fog,Fog,220,2012-12-03 10:23:00
5:51 AM,44.6,44.6,100,30.31,0.5,Calm,Calm,-,N/A,Fog,Fog,0,2012-12-03 10:51:00
5:54 AM,46.4,46.4,100,30.31,1.0,Calm,Calm,-,N/A,,Mist,0,2012-12-03 10:54:00
5:56 AM,46.0,45.0,96,30.31,2.5,Calm,Calm,-,N/A,,Mostly Cloudy,0,2012-12-03 10:56:00
5:58 AM,44.6,44.6,100,30.31,4.0,SW,3.5,-,N/A,,Scattered Clouds,220,2012-12-03 10:58:00
6:02 AM,46.4,44.6,93,30.31,0.8,SSW,3.5,-,N/A,,Mist,210,2012-12-03 11:02:00
6:21 AM,48.2,46.4,93,30.31,1.2,SSW,3.5,-,N/A,,Partly Cloudy,210,2012-12-03 11:21:00
6:31 AM,46.4,46.4,100,30.32,5.0,SSW,3.5,-,N/A,,Partly Cloudy,210,2012-12-03 11:31:00
6:38 AM,46.4,44.6,93,30.32,1.5,Calm,Calm,-,N/A,,Partly Cloudy,0,2012-12-03 11:38:00
6:40 AM,46.4,46.4,100,30.32,0.8,Calm,Calm,-,N/A,,Mist,0,2012-12-03 11:40:00
6:56 AM,45.0,45.0,100,30.33,0.8,SSW,4.6,-,N/A,,Mist,210,2012-12-03 11:56:00
7:00 AM,44.6,44.6,100,30.33,2.0,SSW,4.6,-,N/A,,Mostly Cloudy,210,2012-12-03 12:00:00
7:06 AM,46.4,44.6,93,30.33,3.0,SSW,4.6,-,N/A,,Scattered Clouds,210,2012-12-03 12:06:00
7:08 AM,48.2,46.4,93,30.33,1.8,SSW,4.6,-,N/A,,Scattered Clouds,210,2012-12-03 12:08:00
7:15 AM,50.0,50.0,100,30.33,0.8,SSW,4.6,-,N/A,,Mist,210,2012-12-03 12:15:00
7:27 AM,46.4,46.4,100,30.33,0.2,SSW,3.5,-,N/A,Fog,Fog,200,2012-12-03 12:27:00
7:34 AM,44.6,44.6,100,30.33,0.2,Calm,Calm,-,N/A,Fog,Fog,0,2012-12-03 12:34:00
7:56 AM,42.1,42.1,100,30.34,0.8,Calm,Calm,-,N/A,,Mist,0,2012-12-03 12:56:00
7:58 AM,42.8,42.8,100,30.33,2.5,Calm,Calm,-,N/A,,Overcast,0,2012-12-03 12:58:00
8:05 AM,42.8,42.8,100,30.33,8.0,Calm,Calm,-,N/A,,Overcast,0,2012-12-03 13:05:00
8:23 AM,46.4,44.6,93,30.34,1.8,Calm,Calm,-,N/A,,Overcast,0,2012-12-03 13:23:00
8:29 AM,46.4,46.4,100,30.34,0.5,Calm,Calm,-,N/A,Fog,Fog,0,2012-12-03 13:29:00
8:40 AM,48.2,48.2,100,30.34,2.0,Calm,Calm,-,N/A,,Mostly Cloudy,0,2012-12-03 13:40:00
8:42 AM,48.2,48.2,100,30.34,3.0,Calm,Calm,-,N/A,,Scattered Clouds,0,2012-12-03 13:42:00
9:56 AM,62.1,55.9,80,30.34,10.0,SW,5.8,-,N/A,,Clear,230,2012-12-03 14:56:00
10:56 AM,66.0,55.9,70,30.34,10.0,West,4.6,-,N/A,,Clear,280,2012-12-03 15:56:00
11:56 AM,69.1,55.0,61,30.31,10.0,SW,6.9,-,N/A,,Clear,230,2012-12-03 16:56:00
12:56 PM,72.0,54.0,53,30.28,10.0,SSW,11.5,-,N/A,,Clear,200,2012-12-03 17:56:00
1:56 PM,72.0,51.1,48,30.27,10.0,Variable,6.9,16.1,N/A,,Clear,0,2012-12-03 18:56:00
2:56 PM,73.0,48.9,42,30.25,10.0,SSW,9.2,-,N/A,,Partly Cloudy,210,2012-12-03 19:56:00
3:56 PM,73.0,51.1,46,30.25,10.0,South,9.2,-,N/A,,Mostly Cloudy,190,2012-12-03 20:56:00
4:56 PM,69.1,52.0,54,30.26,10.0,SSW,3.5,-,N/A,,Mostly Cloudy,200,2012-12-03 21:56:00
5:56 PM,64.0,52.0,65,30.27,10.0,South,4.6,-,N/A,,Clear,180,2012-12-03 22:56:00
6:56 PM,61.0,53.1,75,30.28,10.0,Calm,Calm,-,N/A,,Clear,0,2012-12-03 23:56:00
7:56 PM,59.0,53.1,81,30.29,10.0,Calm,Calm,-,N/A,,Clear,0,2012-12-04 00:56:00
8:56 PM,55.9,52.0,87,30.28,10.0,Calm,Calm,-,N/A,,Clear,0,2012-12-04 01:56:00
9:56 PM,53.1,50.0,89,30.29,10.0,South,4.6,-,N/A,,Clear,190,2012-12-04 02:56:00
10:56 PM,54.0,51.1,90,30.29,10.0,South,3.5,-,N/A,,Clear,180,2012-12-04 03:56:00
11:56 PM,54.0,50.0,86,30.29,10.0,SSW,4.6,-,N/A,,Partly Cloudy,200,2012-12-04 04:56:00